Total_Precipitation_Accumulation
0.11 0.16 0.16 0.16 0.19 0.22 0.27 0.31 0.38 0.36 0.44 0.48 0.41 0.34 0.28 0.23 0.22 0.22 0.20 0.15 0.12 0.11 0.10 0.11 0.14 0.17 0.25 0.33 0.37 0.44 0.59 0.80 0.91 0.90 0.85 0.84 0.83 0.90 0.87 0.80 0.77 0.81 0.74 0.72
0.14 0.17 0.21 0.23 0.25 0.21 0.19 0.17 0.19 0.26 0.36 0.31 0.29 0.29 0.27 0.24 0.21 0.20 0.17 0.13 0.11 0.10 0.09 0.08 0.08 0.10 0.17 0.27 0.34 0.43 0.55 0.67 0.71 0.76 0.78 0.75 0.70 0.69 0.71 0.74 0.73 0.74 0.68 0.66
0.14 0.21 0.26 0.34 0.28 0.29 0.28 0.23 0.23 0.36 0.40 0.28 0.26 0.21 0.17 0.15 0.14 0.13 0.11 0.10 0.09 0.08 0.08 0.07 0.07 0.10 0.16 0.23 0.29 0.40 0.48 0.53 0.61 0.72 0.74 0.68 0.59 0.63 0.71 0.72 0.71 0.70 0.64 0.61
0.14 0.28 0.44 0.31 0.11 0.09 0.13 0.16 0.17 0.21 0.22 0.18 0.16 0.13 0.09 0.07 0.07 0.07 0.06 0.06 0.06 0.06 0.06 0.05 0.07 0.12 0.16 0.22 0.28 0.39 0.49 0.57 0.62 0.73 0.74 0.69 0.67 0.67 0.69 0.69 0.69 0.70 0.65 0.61
0.16 0.28 0.32 0.19 0.09 0.08 0.11 0.12 0.07 0.08 0.09 0.09 0.08 0.08 0.10 0.06 0.03 0.03 0.04 0.05 0.05 0.04 0.06 0.09 0.11 0.14 0.19 0.26 0.31 0.39 0.50 0.62 0.72 0.80 0.80 0.75 0.73 0.71 0.70 0.68 0.64 0.64 0.66 0.67
0.16 0.31 0.36 0.23 0.12 0.12 0.14 0.26 0.13 0.09 0.08 0.07 0.07 0.14 0.17 0.06 0.01 0.01 0.04 0.08 0.09 0.07 0.10 0.16 0.17 0.18 0.25 0.32 0.41 0.52 0.60 0.69 0.76 0.82 0.85 0.82 0.80 0.78 0.75 0.74 0.67 0.62 0.64 0.68
0.15 0.25 0.27 0.19 0.15 0.15 0.27 0.35 0.10 0.05 0.04 0.04 0.08 0.13 0.09 0.03 0.02 0.02 0.03 0.09 0.12 0.16 0.24 0.25 0.24 0.29 0.37 0.42 0.50 0.56 0.65 0.73 0.82 0.90 0.87 0.84 0.86 0.89 0.87 0.83 0.83 0.76 0.69 0.70
0.23 0.32 0.34 0.19 0.17 0.19 0.20 0.10 0.07 0.05 0.04 0.04 0.04 0.04 0.04 0.04 0.04 0.03 0.05 0.08 0.15 0.26 0.31 0.30 0.34 0.48 0.55 0.58 0.59 0.61 0.71 0.79 0.90 0.97 0.82 0.75 0.92 0.95 0.95 0.96 0.96 0.93 0.87 0.79
0.30 0.32 0.23 0.18 0.18 0.23 0.17 0.10 0.07 0.05 0.04 0.04 0.04 0.05 0.05 0.05 0.05 0.08 0.10 0.12 0.15 0.23 0.29 0.32 0.42 0.60 0.77 0.78 0.71 0.71 0.80 0.90 0.94 0.96 1.01 1.01 0.99 1.00 1.02 1.01 1.03 1.01 0.99 0.93
0.34 0.32 0.21 0.17 0.14 0.13 0.13 0.09 0.06 0.04 0.04 0.04 0.04 0.05 0.05 0.04 0.06 0.09 0.11 0.12 0.14 0.21 0.30 0.39 0.49 0.64 0.79 0.83 0.82 0.85 0.90 0.95 0.99 1.02 1.04 1.09 1.15 1.12 1.09 1.05 1.07 1.09 1.02 1.00
0.31 0.29 0.21 0.13 0.09 0.08 0.08 0.09 0.07 0.06 0.05 0.05 0.05 0.06 0.06 0.06 0.07 0.08 0.09 0.11 0.14 0.23 0.35 0.42 0.49 0.60 0.70 0.75 0.86 0.96 1.00 1.03 1.06 1.08 1.12 1.15 1.17 1.12 1.04 1.01 0.92 0.95 0.97 0.96
0.32 0.21 0.20 0.14 0.08 0.09 0.07 0.06 0.05 0.05 0.05 0.06 0.06 0.06 0.07 0.07 0.08 0.09 0.10 0.12 0.18 0.24 0.33 0.40 0.47 0.57 0.66 0.79 0.93 1.09 1.12 1.06 1.05 1.04 1.08 1.12 1.12 0.98 0.76 0.69 0.62 0.60 0.64 0.68
0.23 0.17 0.19 0.14 0.09 0.08 0.08 0.07 0.06 0.07 0.07 0.06 0.06 0.06 0.06 0.07 0.08 0.10 0.11 0.15 0.22 0.27 0.32 0.38 0.43 0.53 0.66 0.81 0.95 1.06 1.10 1.06 0.99 0.94 0.94 0.94 0.99 1.02 0.95 0.80 0.71 0.62 0.51 0.47
0.18 0.17 0.17 0.12 0.08 0.07 0.07 0.06 0.05 0.05 0.05 0.05 0.06 0.07 0.08 0.09 0.10 0.12 0.15 0.21 0.26 0.29 0.33 0.36 0.41 0.49 0.63 0.88 1.06 1.06 1.01 0.93 0.89 0.90 0.88 0.85 0.86 0.91 0.92 0.96 0.96 0.83 0.63 0.52
0.16 0.18 0.15 0.09 0.06 0.06 0.07 0.07 0.06 0.07 0.06 0.07 0.07 0.09 0.11 0.15 0.16 0.16 0.19 0.25 0.30 0.34 0.37 0.41 0.46 0.50 0.59 0.84 1.09 1.13 1.04 0.92 0.85 0.82 0.83 0.83 0.82 0.82 0.85 0.91 0.96 0.95 0.81 0.69
0.19 0.19 0.16 0.15 0.12 0.11 0.10 0.09 0.09 0.09 0.09 0.09 0.11 0.12 0.14 0.15 0.16 0.16 0.21 0.28 0.38 0.42 0.44 0.50 0.53 0.52 0.59 0.78 0.99 1.07 1.05 0.91 0.84 0.79 0.76 0.81 0.85 0.82 0.80 0.88 0.93 0.92 0.87 0.72
0.26 0.24 0.19 0.17 0.17 0.16 0.15 0.15 0.15 0.15 0.16 0.16 0.16 0.16 0.17 0.18 0.20 0.23 0.25 0.30 0.37 0.41 0.46 0.54 0.56 0.54 0.63 0.81 0.97 1.00 1.01 0.91 0.82 0.74 0.71 0.74 0.81 0.81 0.77 0.82 0.85 0.82 0.74 0.63
0.35 0.32 0.26 0.20 0.18 0.18 0.18 0.21 0.22 0.24 0.25 0.25 0.24 0.26 0.28 0.34 0.39 0.40 0.40 0.40 0.40 0.41 0.44 0.49 0.51 0.53 0.62 0.78 0.94 0.99 1.01 0.98 0.88 0.79 0.75 0.74 0.75 0.78 0.79 0.80 0.79 0.77 0.68 0.55
0.34 0.30 0.29 0.26 0.26 0.28 0.30 0.30 0.31 0.32 0.32 0.31 0.32 0.34 0.36 0.42 0.49 0.50 0.49 0.53 0.58 0.59 0.54 0.53 0.54 0.50 0.53 0.65 0.85 0.97 0.96 0.95 0.91 0.82 0.76 0.76 0.76 0.78 0.81 0.77 0.72 0.72 0.66 0.55
0.37 0.39 0.42 0.43 0.41 0.42 0.41 0.38 0.37 0.34 0.33 0.34 0.38 0.43 0.46 0.48 0.54 0.56 0.59 0.62 0.65 0.70 0.67 0.60 0.52 0.48 0.48 0.58 0.76 0.85 0.90 0.91 0.87 0.79 0.75 0.74 0.73 0.77 0.75 0.65 0.57 0.57 0.58 0.52
0.51 0.57 0.60 0.63 0.61 0.57 0.51 0.45 0.43 0.41 0.39 0.41 0.48 0.54 0.57 0.57 0.58 0.63 0.72 0.73 0.64 0.63 0.62 0.60 0.51 0.49 0.50 0.58 0.69 0.80 0.87 0.87 0.85 0.80 0.75 0.68 0.65 0.66 0.63 0.57 0.50 0.47 0.48 0.47
0.50 0.50 0.51 0.49 0.47 0.46 0.42 0.39 0.36 0.36 0.40 0.45 0.49 0.54 0.61 0.65 0.66 0.64 0.66 0.75 0.73 0.67 0.59 0.56 0.53 0.51 0.53 0.57 0.61 0.73 0.81 0.78 0.74 0.71 0.64 0.58 0.56 0.57 0.54 0.47 0.42 0.39 0.39 0.41
0.43 0.39 0.36 0.33 0.30 0.31 0.28 0.28 0.30 0.36 0.41 0.46 0.52 0.62 0.74 0.78 0.82 0.84 0.77 0.65 0.66 0.61 0.53 0.47 0.46 0.47 0.46 0.47 0.53 0.62 0.67 0.67 0.65 0.62 0.57 0.50 0.48 0.53 0.49 0.39 0.36 0.36 0.37 0.37
0.31 0.27 0.25 0.23 0.22 0.24 0.23 0.22 0.23 0.28 0.34 0.40 0.45 0.55 0.76 0.93 0.90 0.77 0.74 0.66 0.57 0.49 0.43 0.35 0.31 0.35 0.38 0.38 0.41 0.49 0.57 0.60 0.59 0.56 0.51 0.46 0.43 0.48 0.44 0.37 0.34 0.34 0.36 0.35
0.19 0.18 0.17 0.18 0.20 0.21 0.22 0.23 0.24 0.25 0.32 0.41 0.43 0.45 0.62 0.87 0.99 0.82 0.66 0.55 0.51 0.45 0.40 0.35 0.30 0.30 0.30 0.29 0.32 0.40 0.48 0.54 0.57 0.55 0.47 0.45 0.44 0.46 0.43 0.39 0.36 0.36 0.36 0.37
0.15 0.19 0.22 0.23 0.26 0.30 0.31 0.35 0.39 0.43 0.56 0.71 0.68 0.57 0.64 0.75 0.78 0.72 0.62 0.50 0.46 0.46 0.40 0.37 0.35 0.31 0.27 0.26 0.30 0.39 0.43 0.47 0.53 0.52 0.48 0.47 0.46 0.44 0.44 0.45 0.41 0.37 0.37 0.38
0.16 0.21 0.26 0.29 0.29 0.36 0.43 0.48 0.56 0.65 0.82 1.07 1.11 0.88 0.76 0.75 0.70 0.64 0.60 0.54 0.49 0.49 0.43 0.38 0.36 0.33 0.30 0.30 0.32 0.37 0.40 0.43 0.47 0.50 0.49 0.47 0.46 0.47 0.46 0.44 0.46 0.42 0.38 0.36